CZ-6A DEB, 56625

Orbit data source: Space-Track

CZ-6A DEB, 56625 is space debris in SSO originally from a launch on Fri, 11 Nov 2022 UTC launched from the Taiyaun Space Center, China (TSC). Debris objects in space refer to the collection of defunct objects orbiting the Earth. Examples of debris include non-operational satellites, rocket bodies, and fragments generated from explosions, collisions, or faulty payload assembly.

Loading next visibility...
Identifier
56625, 2022-151AEZ
Orbit
SSO
Country
Flag of CNCN / PRC
Related business
Manufacturer
SAST
Mission
Spacecraft
Bus & Motor
Unknown
Mass
Unknown
Launch date (UTC)
2022-11-11 (4 years ago)
Launch vehicle
Unknown
Launch site
Taiyaun Space Center, China (TSC)
Object type
Payload
Rocket body
Debris
Shape & HBR
Unknown shape, 0.1 m
Radar Cross Section
Small (<0.1 m²)

Expand to show TLE details & history
Last TLE update: 1 week ago

TLE from 1 week ago
0 CZ-6A DEB
1 56625U 22151AEZ 26228.23728471  .00000180  00000-0  13800-3 0  9993
2 56625  98.8996 216.6705 0079652 214.3893 145.2104 14.03758555169513
Epoch: 2026-08-16T05:41Z
TLE epoch observation values (Epoch: 2026-08-16T05:41:41.398Z)
Latitude
-0.00005°
Longitude
166.61132°
Altitude
931.337 km
Speed
7.362 km/s
True Right ascension
14h 26m 40s
True Declination
0° 00' 00"
Sunlit
Object was in daylight at epoch
Visualization orbit readout
Latitude
Unknown
Longitude
Unknown
Altitude
Unknown
Speed
Unknown
Apparent Right ascension
Unknown
Apparent Declination
Unknown
Sunlit
N/A
Visualization observer readout
Local Sidereal Time
08:07:48
Azimuth
Unknown
Elevation
Unknown
Doppler factor
Unknown
Orbital elements
Apogee altitude
935.795 km
Perigee altitude
820.202 km
Semi-major axis
7,256.135 km
Eccentricity
0.00797
Inclination
98.8996°
RAAN
216.6705°
Arg. of periapsis
214.3893°
True anomaly
145.72695°
Mean anomaly
145.2104°
Eccentric anomaly
145.46909°
Mean motion
3.51144 °/min
Orbital period
102.52 mins
BSTAR
0.000138
Loading maneuver chart data...
Computing Atmospheric mass density...

Documentation

Showing up to 5 results
|